Home > Weather > Zürich > Past weeks

Flag for Switzerland Past Weather in Zürich, Zurich, Switzerland — Yesterday and Last 2 Weeks

Now
75 °F

Mild.


Feels Like: 77 °F
Forecast: 62 / 88 °F
Wind: 2 mph from Southwest

Location: Zuerich-Fluntern

Current Time: Aug 27, 2016 at 12:22:06 PM

Latest Report: Aug 27, 2016 at 11:00 AM


Visibility: N/A

Pressure: 30.07 "Hg

Humidity: 65%

Dew Point: 63 °F

Location of ZürichLocation

Past Weather in Zürich — Graph

°F

Zürich Temperature Yesterday

Maximum temperature yesterday: 89 °F (at 4:00 PM)
Minimum temperature yesterday: 66 °F (at 6:00 AM)
Average temperature yesterday: 75 °F

High & Low Weather Summary for the Past Weeks

 TemperatureHumidityPressure
High89 °F (Aug 26, 4:00 PM)97% (Aug 18, 6:00 PM)30.39 "Hg (Aug 18, 6:00 PM)
Low52 °F (Aug 22, 5:00 AM)37% (Aug 26, 5:00 PM)29.80 "Hg (Aug 17, 6:00 PM)
Average67 °F75%30.09 "Hg
* Reported Aug 12 10:00 AM — Aug 27 10:00 AM, Zürich, Weather by CustomWeather, © 2016

Note: Actual official high and low records may vary slightly from our data, if they occured in-between our weather recording intervals... More about our weather records

Advertising

Zürich Weather History for the Previous 24 Hours

Scroll right to see more
 ConditionsComfort  
Time TempWeatherWind HumidityBarometerVisibility
10:00 AM
Sat, Aug 27
72 °FMild.2 mph69%30.08 "HgN/A
9:00 AM69 °FMild.2 mph80%30.09 "HgN/A
8:00 AM66 °FMild.No wind83%30.09 "HgN/A
7:00 AM64 °FMild.No wind83%30.08 "HgN/A
5:00 AM65 °FMild.No wind83%30.07 "HgN/A
4:00 AM66 °FMild.No wind83%30.08 "HgN/A
3:00 AM67 °FMild.No wind80%30.07 "HgN/A
2:00 AM69 °FMild.No wind79%30.07 "HgN/A
1:00 AM70 °FMild.1 mph76%30.07 "HgN/A
12:00 AM71 °FMild.1 mph74%30.06 "HgN/A
11:00 PM
Fri, Aug 26
72 °FMild.No wind68%30.06 "HgN/A
10:00 PM74 °FMild.3 mph61%30.03 "HgN/A
9:00 PM75 °FMild.5 mph61%30.02 "HgN/A
8:00 PM78 °FSunny.2 mph57%30.00 "HgN/A
7:00 PM83 °FWarm.No wind57%29.98 "HgN/A
6:00 PM86 °FWarm.2 mph41%29.97 "HgN/A
5:00 PM87 °FPleasantly warm.2 mph37%29.98 "HgN/A
4:00 PM89 °FHot.2 mph38%29.98 "HgN/A
3:00 PM87 °FWarm.3 mph48%29.99 "HgN/A
2:00 PM85 °FSunny.5 mph48%30.01 "HgN/A
1:00 PM83 °FWarm.2 mph55%30.02 "HgN/A
12:00 PM80 °FWarm.3 mph65%30.04 "HgN/A
Weather by CustomWeather, © 2016

See weather overviewHow to use our weather pages